User: anonymous   Login
Location: Peebles
(55.6412°N, 3.1714°W)
Time: 12:27:19
(UTC+00:00)
Language:

SJ 16-02 - Orbit

View from above orbital plane
View from above orbital plane
View from above satellite
View from above satellite

Ground track
Ground track

The orbit data is extracted from the following two-line orbital elements,

1 41634U 16043A   21342.16053824  .00000195  00000-0  25506-4 0  9990
2 41634  75.0017 145.3333 0006851  80.8868 279.3091 14.85892167295244
Epoch (UTC): 08 December 2021 03:51:10
Eccentricity: 0.0006851
inclination: 75.0017°
perigee height: 606 km
apogee height: 615 km
right ascension of ascending node: 145.3333°
argument of perigee: 80.8868°
revolutions per day: 14.85892167
mean anomaly at epoch: 279.3091°
orbit number at epoch: 29524

The dashed part of the orbit path shows where the satellite is in the earth's shadow,  

DLR